When you browse on this site, cookies collect data to enhance your experience and personalize the content and advertising you see.
Visit our Privacy Policy to learn more. By continuing to use the site, you agree to this use of cookies and data.
  • In Romania
  • List of Countries
  • For 7 days
  • Water Temperature
  • Satellite Maps
  • Weather Map
  • Weather Widgets
  • user-avatar
    Login

    Hourly Weather Fagernes

    Today, 20 July, Saturday

    Time Temperature Precipitation Wind Pressure Humidity
    00:00 +12°C° 0 mm 1 mps 723 mmHg 98%
    01:00 +12°C° 0 mm 1 mps 723 mmHg 99%
    02:00 +12°C° 0 mm 1 mps 723 mmHg 98%
    03:00 +13°C° 0 mm 1 mps 723 mmHg 97%
    04:00 +12°C° 0 mm 0 mps 723 mmHg 96%
    05:00 +13°C° 0 mm 0 mps 723 mmHg 94%
    06:00 +13°C° 0 mm 0 mps 723 mmHg 92%
    07:00 +14°C° 0 mm 0 mps 723 mmHg 90%
    08:00 +16°C° 0.2 mm 1 mps 723 mmHg 87%
    09:00 +16°C° 0.2 mm 1 mps 723 mmHg 85%
    10:00 +17°C° 0.2 mm 2 mps 724 mmHg 82%
    11:00 +18°C° 0.2 mm 2 mps 723 mmHg 75%
    12:00 +19°C° 0.2 mm 3 mps 723 mmHg 69%
    13:00 +20°C° 0.2 mm 3 mps 723 mmHg 62%
    14:00 +19°C° 0 mm 3 mps 723 mmHg 64%
    15:00 +18°C° 0 mm 3 mps 723 mmHg 67%
    16:00 +18°C° 0 mm 3 mps 723 mmHg 69%
    17:00 +17°C° 0.3 mm 2 mps 722 mmHg 76%
    18:00 +16°C° 0.3 mm 2 mps 722 mmHg 84%
    19:00 +14°C° 0.3 mm 1 mps 722 mmHg 91%
    20:00 +14°C° 0.4 mm 1 mps 722 mmHg 93%
    21:00 +14°C° 0.4 mm 1 mps 722 mmHg 94%
    22:00 +13°C° 0.4 mm 1 mps 722 mmHg 96%
    23:00 +13°C° 0.2 mm 1 mps 721 mmHg 96%

    Tomorrow, 21 July, Sunday

    Time Temperature Precipitation Wind Pressure Humidity
    00:00 +13°C° 0.2 mm 1 mps 721 mmHg 96%
    01:00 +12°C° 0.2 mm 1 mps 721 mmHg 97%
    02:00 +12°C° 0.7 mm 1 mps 721 mmHg 97%
    03:00 +12°C° 0.7 mm 1 mps 720 mmHg 97%
    04:00 +13°C° 0.7 mm 1 mps 720 mmHg 98%
    05:00 +13°C° 0.3 mm 1 mps 720 mmHg 97%
    06:00 +13°C° 0.3 mm 1 mps 720 mmHg 97%
    07:00 +14°C° 0.3 mm 1 mps 720 mmHg 96%
    08:00 +15°C° 0.1 mm 1 mps 721 mmHg 94%
    09:00 +15°C° 0.1 mm 1 mps 721 mmHg 92%
    10:00 +16°C° 0.1 mm 1 mps 721 mmHg 90%
    11:00 +18°C° 0.6 mm 1 mps 721 mmHg 87%
    12:00 +19°C° 0.6 mm 1 mps 722 mmHg 84%
    13:00 +20°C° 0.6 mm 1 mps 722 mmHg 81%
    14:00 +20°C° 1.7 mm 1 mps 722 mmHg 83%
    15:00 +20°C° 1.7 mm 1 mps 722 mmHg 84%
    16:00 +19°C° 1.7 mm 2 mps 722 mmHg 85%
    17:00 +18°C° 1 mm 2 mps 722 mmHg 88%
    18:00 +19°C° 1 mm 1 mps 722 mmHg 90%
    19:00 +18°C° 1 mm 1 mps 722 mmHg 93%
    20:00 +18°C° 0.4 mm 1 mps 723 mmHg 93%
    21:00 +16°C° 0.4 mm 1 mps 723 mmHg 94%
    22:00 +15°C° 0.4 mm 1 mps 724 mmHg 95%
    23:00 +14°C° 0.2 mm 1 mps 724 mmHg 95%

    Day after tomorrow, 22 July, Monday

    Time Temperature Precipitation Wind Pressure Humidity
    00:00 +14°C° 0.2 mm 1 mps 724 mmHg 95%
    01:00 +13°C° 0.2 mm 1 mps 724 mmHg 95%
    02:00 +12°C° 0.1 mm 1 mps 724 mmHg 95%
    03:00 +12°C° 0.1 mm 1 mps 725 mmHg 95%
    04:00 +12°C° 0.1 mm 1 mps 725 mmHg 94%
    05:00 +13°C° 0 mm 1 mps 725 mmHg 92%
    06:00 +14°C° 0 mm 1 mps 725 mmHg 90%
    07:00 +14°C° 0 mm 0 mps 725 mmHg 88%
    08:00 +16°C° 0 mm 1 mps 725 mmHg 84%
    09:00 +19°C° 0 mm 1 mps 725 mmHg 79%
    10:00 +20°C° 0 mm 1 mps 725 mmHg 74%
    11:00 +20°C° 0.1 mm 2 mps 725 mmHg 70%
    12:00 +20°C° 0.1 mm 3 mps 725 mmHg 67%
    13:00 +21°C° 0.1 mm 3 mps 725 mmHg 63%
    14:00 +20°C° 0.1 mm 3 mps 724 mmHg 65%
    15:00 +19°C° 0.1 mm 3 mps 724 mmHg 68%
    16:00 +19°C° 0.1 mm 3 mps 724 mmHg 71%
    17:00 +17°C° 0.1 mm 2 mps 724 mmHg 77%
    18:00 +16°C° 0.1 mm 2 mps 723 mmHg 84%
    19:00 +15°C° 0.1 mm 2 mps 723 mmHg 91%
    20:00 +15°C° 0 mm 2 mps 723 mmHg 92%
    21:00 +14°C° 0 mm 2 mps 724 mmHg 93%
    22:00 +14°C° 0 mm 2 mps 724 mmHg 94%
    23:00 +14°C° 0 mm 1 mps 724 mmHg 94%

    23 July, Tuesday

    Time Temperature Precipitation Wind Pressure Humidity
    00:00 +15°C° 0 mm 1 mps 724 mmHg 94%
    01:00 +15°C° 0 mm 1 mps 724 mmHg 94%
    02:00 +15°C° 0 mm 1 mps 724 mmHg 94%
    03:00 +15°C° 0 mm 1 mps 725 mmHg 94%
    04:00 +15°C° 0 mm 1 mps 725 mmHg 94%
    05:00 +16°C° 0 mm 1 mps 725 mmHg 92%
    06:00 +18°C° 0 mm 1 mps 725 mmHg 90%
    07:00 +19°C° 0 mm 1 mps 726 mmHg 87%
    08:00 +19°C° 0 mm 2 mps 726 mmHg 80%
    09:00 +21°C° 0 mm 2 mps 726 mmHg 73%
    10:00 +24°C° 0 mm 3 mps 726 mmHg 65%
    11:00 +25°C° 0 mm 3 mps 727 mmHg 61%
    12:00 +25°C° 0 mm 4 mps 727 mmHg 58%
    13:00 +26°C° 0 mm 4 mps 727 mmHg 54%
    14:00 +27°C° 0 mm 5 mps 727 mmHg 52%
    15:00 +27°C° 0 mm 5 mps 727 mmHg 49%
    16:00 +27°C° 0 mm 5 mps 727 mmHg 47%
    17:00 +26°C° 0 mm 4 mps 727 mmHg 51%
    18:00 +25°C° 0 mm 3 mps 727 mmHg 55%
    19:00 +25°C° 0 mm 2 mps 727 mmHg 59%
    20:00 +21°C° 0 mm 2 mps 727 mmHg 66%
    21:00 +19°C° 0 mm 2 mps 727 mmHg 73%
    22:00 +17°C° 0 mm 2 mps 727 mmHg 80%
    23:00 +16°C° 0 mm 2 mps 727 mmHg 83%

    24 July, Wednesday

    Time Temperature Precipitation Wind Pressure Humidity
    00:00 +15°C° 0 mm 2 mps 727 mmHg 86%
    01:00 +15°C° 0 mm 2 mps 727 mmHg 89%
    02:00 +14°C° 0 mm 1 mps 727 mmHg 90%
    03:00 +14°C° 0 mm 1 mps 727 mmHg 92%
    04:00 +14°C° 0 mm 1 mps 727 mmHg 93%
    05:00 +15°C° 0 mm 1 mps 727 mmHg 85%
    06:00 +18°C° 0 mm 1 mps 728 mmHg 78%
    07:00 +20°C° 0 mm 1 mps 728 mmHg 70%
    08:00 +23°C° 0 mm 1 mps 728 mmHg 63%
    09:00 +23°C° 0 mm 0 mps 728 mmHg 57%
    10:00 +25°C° 0 mm 0 mps 729 mmHg 50%
    11:00 +28°C° 0 mm 1 mps 729 mmHg 47%
    12:00 +28°C° 0 mm 1 mps 729 mmHg 44%
    13:00 +29°C° 0 mm 1 mps 729 mmHg 42%
    14:00 +28°C° 0 mm 2 mps 728 mmHg 44%
    15:00 +28°C° 0 mm 2 mps 728 mmHg 46%
    16:00 +28°C° 0 mm 2 mps 728 mmHg 49%
    17:00 +27°C° 0 mm 2 mps 728 mmHg 52%
    18:00 +27°C° 0 mm 2 mps 728 mmHg 55%
    19:00 +27°C° 0 mm 2 mps 728 mmHg 58%
    20:00 +24°C° 0 mm 2 mps 728 mmHg 64%
    21:00 +21°C° 0 mm 2 mps 728 mmHg 69%
    22:00 +19°C° 0 mm 2 mps 728 mmHg 75%
    23:00 +19°C° 0 mm 1 mps 729 mmHg 78%

    25 July, Thursday

    Time Temperature Precipitation Wind Pressure Humidity
    00:00 +19°C° 0 mm 1 mps 729 mmHg 81%
    01:00 +18°C° 0 mm 1 mps 729 mmHg 84%
    02:00 +18°C° 0 mm 1 mps 729 mmHg 85%
    03:00 +18°C° 0 mm 1 mps 729 mmHg 86%
    04:00 +15°C° 0 mm 0 mps 729 mmHg 88%
    05:00 +19°C° 0 mm 1 mps 729 mmHg 82%
    06:00 +21°C° 0 mm 1 mps 729 mmHg 75%
    07:00 +23°C° 0 mm 1 mps 730 mmHg 69%
    08:00 +25°C° 0 mm 1 mps 730 mmHg 62%
    09:00 +26°C° 0 mm 2 mps 730 mmHg 55%
    10:00 +28°C° 0 mm 2 mps 730 mmHg 48%
    11:00 +29°C° 0 mm 3 mps 730 mmHg 47%
    12:00 +29°C° 0 mm 4 mps 730 mmHg 46%
    13:00 +30°C° 0 mm 4 mps 730 mmHg 45%
    14:00 +30°C° 0 mm 4 mps 730 mmHg 46%
    15:00 +32°C° 0 mm 5 mps 730 mmHg 47%
    16:00 +32°C° 0 mm 5 mps 730 mmHg 48%
    17:00 +30°C° 0 mm 4 mps 730 mmHg 52%
    18:00 +29°C° 0 mm 4 mps 730 mmHg 56%
    19:00 +29°C° 0 mm 3 mps 730 mmHg 60%
    20:00 +26°C° 0 mm 2 mps 730 mmHg 69%
    21:00 +24°C° 0 mm 2 mps 730 mmHg 77%
    22:00 +22°C° 0 mm 1 mps 730 mmHg 85%
    23:00 +22°C° 0 mm 1 mps 730 mmHg 87%
    Show more